www.pogodaiklimat.ru

Погода и климат >> Архив погоды >> Россия >> Нижегородская область >> Выкса


ПОГОДА в Выксе

  • Прогноз погоды в Выксе
  • Монитор погоды в Выксе
  • Климат города

АРХИВ ПОГОДЫ в Выксе

Время (UTC), дата Ветер
(напр.,м/с)
 
Видим.   Явления Облачность Т
(С)
Тd
(С)
f
(%)
Тe
(С)
Тes
(С)
Комфортность P
(гПа)
Po
(гПа)
Тmin
(С)
Tmax
(С)
R
(мм)
R24
(мм)
S
(см)
03 14.10 З 1-2
{3}
2000 м дымка 10/10 300 м
[St]
+7.1 +6.4 95 +6 +6 1024.3 1010.3 +4.5
06 14.10 СЗ 2-3
{3}
10 км 10/0
[As op]
+7.4 +6.5 94 +5 +5 1025.1 1011.1
09 14.10 СЗ 1-2
{3}
10 км 10/0
[As op]
+9.7 +7.6 87 +9 +10 1025.3 1011.4
12 14.10 СЗ 2-3
{3}
10 км 9/9 600 м
[Sc]
+10.1 +8.5 90 +9 +9 1025.1 1011.3
15 14.10 З 2-3
{5}
10 км 9/9 600 м
[Sc]
+10.1 +8.5 90 +9 +9 1025.1 1011.3 +10.1
18 14.10 З 2-3
{4}
10 км 8/8 600 м
[Sc]
+9.9 +8.6 92 +8 +8 1024.6 1010.8
21 14.10 ЮЗ 1-1
{5}
10 км ясно +7.8 +7.0 95 +7 +7 1023.6 1009.6
00 15.10 СЗ 3-4
{4}
10 км ясно +9.6 +8.8 95 +7 +7 1023.5 1009.6
03 15.10 СЗ 3-4
{4}
10 км ясно +9.1 +8.1 93 +7 +7 1023.2 1009.3 +7.7
06 15.10 СЗ 3-4
{5}
10 км ясно +11.5 +9.5 88 +10 +11 1024.0 1010.2
09 15.10 СЗ 4-6
{6}
10 км ясно +17.6 +9.7 60 +17 +20 1024.5 1010.9
12 15.10 СЗ 4-6
{7}
10 км ясно +20.9 +7.8 43 +22 +23 комфорт 1024.0 1010.6
15 15.10 СЗ 2-3
{6}
10 км ясно +15.0 +8.9 67 +15 +15 1024.7 1011.1 +20.9
18 15.10 З 2-3
{4}
10 км ясно +11.1 +6.8 75 +10 +10 1025.3 1011.5
21 15.10 З 1-2
{3}
10 км ясно +6.9 +5.8 93 +6 +6 1025.5 1011.5
00 16.10 ЮЗ 1-2
{3}
10 км ясно +6.3 +5.6 95 +5 +5 1026.0 1012.0
03 16.10 Ю 1-1
{2}
10 км ясно +3.0 +2.2 94 +1 +1 1026.3 1012.1 +2.9
06 16.10 штиль 0
{2}
4000 м дымка {туман} 8/0
[As op]
+6.1 +5.4 95 +5 +5 1025.8 1011.8
09 16.10 З 3-5
{5}
10 км 8/0
[Cs]
+15.4 +6.1 54 +15 +17 1025.2 1011.6
12 16.10 З 3-5
{6}
10 км 8/0
[Cs]
+16.5 +5.3 47 +16 +17 1025.0 1011.4
15 16.10 ЮЗ 2-3
{6}
10 км 6/0
[Cs]
+12.5 +5.5 62 +12 +12 1023.8 1010.1 +16.5
18 16.10 ЮЗ 1-3
{4}
10 км ясно +8.3 +4.1 75 +8 +8 1023.5 1009.6
21 16.10 ЮЗ 2-3
{4}
10 км ясно +7.9 +2.9 71 +6 +6 1023.1 1009.1
00 17.10 ЮЗ 2-3
{4}
10 км ясно +4.7 +2.5 86 +2 +2 1023.2 1009.1
03 17.10 ЮЗ 1-2
{3}
10 км ясно +2.7 +1.7 93 +1 +1 1023.4 1009.1 +2.6
06 17.10 З 2-3
{4}
10 км ясно +8.9 +4.8 75 +7 +8 1023.2 1009.3
09 17.10 СЗ 4-6
{6}
10 км 9/0
[Ac trans]
+13.8 +6.8 63 +12 +14 1023.5 1009.8
12 17.10 С 4-6
{8}
10 км 10/0
[Ac As]
+13.2 +7.3 67 +12 +12 1024.2 1010.5
15 17.10 СЗ 1-2
{6}
10 км ясно +8.7 +6.1 84 +8 +8 1024.7 1010.8 +13.8
18 17.10 штиль 0
{2}
10 км ясно +6.2 +5.3 94 +5 +5 1025.2 1011.2
21 17.10 Ю 1-1
{1}
2000 м дымка ясно +2.5 +1.7 94 +1 +1 1026.0 1011.8
00 18.10 ЮВ 1-2
{2}
500 м туман ясно +2.2 +1.7 96 0 0 1026.1 1011.8
03 18.10 Ю 1-2
{2}
<100 м туман 10/10 120 м
[St]
+1.7 +1.2 96 -0 -0 1026.1 1011.8 +1.6
06 18.10 Ю 1-3
{3}
2000 м дымка {туман} 10/10 180 м
[St]
+3.6 +2.9 95 +2 +2 1025.1 1010.9
09 18.10 ЮЗ 2-3
{4}
10 км ясно +11.9 +7.1 72 +11 +14 1024.1 1010.4
12 18.10 ЮЗ 2-5
{6}
10 км ясно +16.6 +7.0 53 +17 +18 1023.1 1009.5
15 18.10 Ю 3-6
{7}
10 км ясно +12.1 +6.4 68 +11 +11 1021.7 1008.0 +16.6
18 18.10 ЮЗ 2-4
{5}
10 км ясно +9.8 +5.9 77 +8 +8 1020.3 1006.4
21 18.10 Ю 2-4
{5}
10 км ясно +7.6 +5.3 85 +6 +6 1020.4 1006.4
00 19.10 Ю 2-2
{4}
10 км ясно +6.0 +4.6 91 +3 +3 1019.3 1006.0
03 19.10 Ю 1-2
{4}
10 км ясно +7.1 +5.9 92 +6 +6 1018.0 1004.0 +5.9
06 19.10 ЮЗ 1-3
{4}
10 км 3/0
[Ac trans]
+8.5 +6.5 87 +8 +9 1017.5 1003.6
09 19.10 ЮЗ 1-2
{3}
10 км 6/4 600 м
[Cu hum Cs]
+14.1 +8.8 70 +15 +17 1016.2 1002.6
12 19.10 ЮЗ 2-5
{6}
10 км {дождь} 6/6 1000 м
[Cu hum]
+17.0 +9.8 63 +17 +18 1014.6 1001.2
15 19.10 ЮЗ 2-6
{7}
10 км 8/8 600 м
[Cu med, cong]
+15.2 +10.0 71 +15 +15 1014.1 1000.6 +17.0 0.1
18 19.10 З 1-2
{4}
10 км 10/10 360 м
[Sc]
+12.3 +9.9 85 +12 +12 1013.9 1000.3
21 19.10 СЗ 2-2
{3}
10 км 6/0
[Ac trans]
+10.4 +9.2 92 +9 +9 1015.0 1001.3
00 20.10 СЗ 2-2
{4}
10 км 8/0
[Ac trans]
+9.6 +6.8 83 +8 +8 1015.5 1001.7
03 20.10 СЗ 2-3
{4}
10 км ясно +4.5 +3.5 93 +2 +2 1016.9 1002.8 +4.4
06 20.10 С 2-3
{5}
10 км {туман} 3/0
[As op]
+5.7 +4.1 89 +3 +4 1017.2 1003.1
09 20.10 С 2-3
{6}
10 км 6/6 600 м
[Cu med, cong]
+10.1 +2.7 60 +9 +10 1018.2 1004.3
12 20.10 СЗ 3 10 км 8/8 600 м
[]
+10.9 +1.9 54 +9 +10 1019.4 1005.9
15 20.10 СВ 3-5
{7}
10 км 9/9 300 м
[Cu med, cong]
+7.6 +1.5 65 +5 +5 1020.7 1006.7 +10.9
18 20.10 З 2-3
{7}
10 км 9/9 300 м
[Sc]
+6.3 +1.0 69 +4 +4 1022.1 1008.1
21 20.10 СЗ 2-3
{6}
10 км 6/0
[As op]
+4.3 +0.6 77 +2 +2 1022.5 1008.3
00 21.10 СЗ 1-2
{3}
10 км ясно +2.7 +0.9 88 +1 +1 1023.1 1008.9

 

Местоположение метеостанции Выкса (Нижегородская область, Россия): широта 55.33 долгота 42.12 высота над уровнем моря 114 м.

В архиве по умолчанию представлена погода в Выксе за последнюю неделю. Архивные данные за месяц целиком и за предыдущие месяцы, начиная с января 2011 года, Вы можете получить, выбрав интересующий диапазон дат из раскрывающегося списка и нажав кнопку "Ввод!".


*Определитесь, кто Вы:
робот инопланетянин человек

Внимание! Время в таблицах - всемирное. Для получения местного времени необходимо прибавить поправку, которая в Выксе равна 3 ч.

Смотрите также архив погоды в соседних городах и на ближайших метеорологических станциях:

Погода в Муроме (Владимирская область, Россия) (31 км)
Погода в Елатьме (Рязанская область, Россия) (48 км)
Погода в Павлово (Нижегородская область, Россия) (90 км)
Погода в Вязниках (Владимирская область, Россия) (97 км)
Погода в Гусь-Хрустальный (Владимирская область, Россия) (97 км)
Погода в Туме (Рязанская область, Россия) (102 км)
Погода в Арзамасе (Нижегородская область, Россия) (105 км)
Погода в Темникове (Мордовия, Россия) (105 км)
Погода в Сасово (Рязанская область, Россия) (109 км)
Погода в Коврове (Владимирская область, Россия) (124 км)

Пояснения к столбцам:

Ветер - указаны скорость ветра в м/с - средняя за 10 мин, порывы в срок и между сроками (в фигурных скобках) и направление, откуда дует ветер: С - северный, СВ - северо-восточный, В - восточный, ЮВ - юго-восточный, Ю - южный, ЮЗ - юго-западный, З - западный, СЗ - северо-западный.
Видимость - горизонтальная дальность видимости в метрах или километрах. При видимости от 1 до 10 км при отсутствии осадков обычно наблюдается дымка, при ухудшении видимости до 1 км и менее - туман. В сухую погоду видимость может ухудшаться дымом, пылью или мглою.
Явления - указаны атмосферные явления, наблюдавшиеся в срок или в последний час перед сроком; фигурными скобками обозначены явления, наблюдавшиеся между сроками (за 1-3 часа до срока); квадратными скобками обозначены град или гололедные отложения с указанием их диаметра в мм.
Облачность - указаны через наклонную черту общая и нижняя облачность в баллах и высота нижней границы облаков в метрах; квадратными скобками обозначены формы облаков: Ci - перистые, Cs - перисто-слоистые, Cc - перисто-кучевые, Ac - высококучевые, As - высокослоистые, Sc - слоисто-кучевые, Ns - слоисто-дождевые, Cu - кучевые, Cb - кучево-дождевые. Подробнее классификацию облаков см. в Атласе облаков (PDF).
T - Температура воздуха - температура, измеренная на высоте 2 м над землей.
Td - Температура точки росы - температура, при понижении до которой содержащийся в воздухе водяной пар достигнет насыщения.
f - Относительная влажность воздуха - влажноcть воздуха, измеренная на высоте 2 м над землей.
Te - Эффективная температура - температура, которую ощущает одетый по сезону человек в тени. Характеристика душности погоды. При расчете учитывается влияние влажности воздуха и скорости ветра на теплоощущения человека.
Tes - Эффективная температура на солнце - температура, которую ощущает человек, с поправкой на солнечный нагрев. Характеристика знойности погоды. Зависит от высоты солнца над горизонтом, облачности и скорости ветра. Ночью, в пасмурную погоду, а также при ветре 12 м/с и более поправка равна нулю.
P - Атмосферное давление - приведенное к уровню моря атмосферное давление.
Po - Атмосферное давление - измеренное на уровне метеостанции атмосферное давление.
Tmin - Минимальная температура - минимум температуры воздуха на высоте 2 м над землей.
Tmax - Максимальная температура - максимум температуры воздуха на высоте 2 м над землей.
R - Количество осадков - Количество выпавших осадков за период времени, мм. При наведении курсора мыши на число - период времени, за который выпало указанное количество осадков.
R24 - Количество осадков - Количество выпавших осадков за 24 часа, мм.
S - Снежный покров - Высота снежного покрова, см. При наведении курсора мыши на число - состояние снежного покрова и степень покрытия местности в баллах.